Time,TemperatureF,DewpointF,PressureIn,WindDirection,WindDirectionDegrees,WindSpeedMPH,WindSpeedGustMPH,Humidity,HourlyPrecipIn,Conditions,Clouds,dailyrainin,SoftwareType,DateUTC
2013-05-20 00:00:00,56.7,50.2,27.08,WNW,292,5.4,12.3,79,0.00,,---,0.00,VWS V14.01,2013-05-20 05:00:00,
2013-05-20 00:04:00,57.6,49.3,27.08,NW,315,3.8,12.5,74,0.00,,---,0.00,VWS V14.01,2013-05-20 05:04:00,
2013-05-20 00:09:00,57.6,49.3,27.08,WNW,292,5.6,13.2,74,0.00,,---,0.00,VWS V14.01,2013-05-20 05:09:00,
2013-05-20 00:15:00,57.6,49.7,27.08,West,270,8.5,13.2,75,0.00,,---,0.00,VWS V14.01,2013-05-20 05:15:00,
2013-05-20 00:20:00,57.6,49.7,27.08,NNW,338,9.0,12.5,75,0.00,,---,0.00,VWS V14.01,2013-05-20 05:20:00,
2013-05-20 00:25:00,57.4,49.5,27.08,NW,315,10.1,13.2,75,0.00,,---,0.00,VWS V14.01,2013-05-20 05:25:00,
2013-05-20 00:30:00,57.4,49.5,27.08,NW,315,10.3,13.2,75,0.00,,---,0.00,VWS V14.01,2013-05-20 05:30:00,
2013-05-20 00:35:00,57.4,49.5,27.08,NW,315,11.2,14.8,75,0.00,,---,0.00,VWS V14.01,2013-05-20 05:35:00,
2013-05-20 00:40:00,57.2,49.7,27.08,NNW,338,9.8,14.8,76,0.00,,---,0.00,VWS V14.01,2013-05-20 05:40:00,
2013-05-20 00:45:00,57.0,49.9,27.08,NW,315,7.4,14.8,77,0.00,,---,0.00,VWS V14.01,2013-05-20 05:45:00,
2013-05-20 00:50:00,56.8,50.1,27.08,NW,315,7.8,12.3,78,0.00,,---,0.00,VWS V14.01,2013-05-20 05:50:00,
2013-05-20 00:55:00,56.8,50.1,27.08,NW,315,6.0,12.3,78,0.00,,---,0.00,VWS V14.01,2013-05-20 05:55:00,
2013-05-20 01:00:00,56.7,50.2,27.08,NW,315,6.9,12.3,79,0.00,,---,0.00,VWS V14.01,2013-05-20 06:00:00,
2013-05-20 01:05:00,56.7,50.6,27.08,NW,315,7.6,10.3,80,0.00,,---,0.00,VWS V14.01,2013-05-20 06:05:00,
2013-05-20 01:10:00,56.5,50.4,27.08,NW,315,7.8,10.3,80,0.00,,---,0.00,VWS V14.01,2013-05-20 06:10:00,
2013-05-20 01:15:00,56.5,50.4,27.08,WNW,292,4.7,10.5,80,0.00,,---,0.00,VWS V14.01,2013-05-20 06:15:00,
2013-05-20 01:20:00,56.3,50.5,27.08,West,270,6.3,7.8,81,0.00,,---,0.00,VWS V14.01,2013-05-20 06:20:00,
2013-05-20 01:25:00,56.3,50.9,27.08,NW,315,7.2,8.5,82,0.00,,---,0.00,VWS V14.01,2013-05-20 06:25:00,
2013-05-20 01:29:00,56.3,50.9,27.08,West,270,4.3,8.5,82,0.00,,---,0.00,VWS V14.01,2013-05-20 06:29:00,
2013-05-20 01:30:00,55.9,50.9,27.08,NW,315,3.8,10.3,83,0.00,,---,0.00,VWS V14.01,2013-05-20 06:30:00,
2013-05-20 01:34:00,56.3,50.9,27.08,NW,315,3.8,6.3,82,0.00,,---,0.00,VWS V14.01,2013-05-20 06:34:00,
2013-05-20 01:39:00,56.3,50.9,27.08,WNW,292,4.3,6.3,82,0.00,,---,0.00,VWS V14.01,2013-05-20 06:39:00,
2013-05-20 01:44:00,56.3,51.2,27.08,West,270,4.0,7.8,83,0.00,,---,0.00,VWS V14.01,2013-05-20 06:44:00,
2013-05-20 01:45:00,55.6,51.2,27.08,NW,315,3.1,7.8,85,0.00,,---,0.00,VWS V14.01,2013-05-20 06:45:00,
2013-05-20 01:49:00,56.5,51.4,27.08,WNW,292,7.4,7.6,83,0.00,,---,0.00,VWS V14.01,2013-05-20 06:49:00,
2013-05-20 01:54:00,56.5,51.4,27.08,NW,315,5.8,8.5,83,0.00,,---,0.00,VWS V14.01,2013-05-20 06:54:00,
2013-05-20 01:59:00,56.3,51.2,27.08,NW,315,6.5,9.8,83,0.00,,---,0.00,VWS V14.01,2013-05-20 06:59:00,
2013-05-20 02:00:00,55.2,51.1,27.08,WNW,292,2.7,6.0,86,0.00,,---,0.00,VWS V14.01,2013-05-20 07:00:00,
2013-05-20 02:04:00,56.3,51.2,27.08,North,0,5.4,7.8,83,0.00,,---,0.00,VWS V14.01,2013-05-20 07:04:00,
2013-05-20 02:09:00,56.3,51.2,27.08,WNW,292,7.6,10.1,83,0.00,,---,0.00,VWS V14.01,2013-05-20 07:09:00,
2013-05-20 02:14:00,56.3,51.2,27.08,NW,315,5.8,10.1,83,0.00,,---,0.00,VWS V14.01,2013-05-20 07:14:00,
2013-05-20 02:15:00,54.9,51.1,27.08,NW,315,4.7,6.0,87,0.00,,---,0.00,VWS V14.01,2013-05-20 07:15:00,
2013-05-20 02:19:00,56.3,51.2,27.08,NW,315,9.8,10.3,83,0.00,,---,0.00,VWS V14.01,2013-05-20 07:19:00,
2013-05-20 02:24:00,56.1,51.0,27.08,West,270,5.6,10.3,83,0.00,,---,0.00,VWS V14.01,2013-05-20 07:24:00,
2013-05-20 02:29:00,55.9,50.9,27.08,NW,315,5.6,10.3,83,0.00,,---,0.00,VWS V14.01,2013-05-20 07:29:00,
2013-05-20 02:30:00,54.9,51.4,27.08,WNW,292,4.3,6.7,88,0.00,,---,0.00,VWS V14.01,2013-05-20 07:30:00,
2013-05-20 02:34:00,55.9,51.2,27.08,NW,315,5.6,7.8,84,0.00,,---,0.00,VWS V14.01,2013-05-20 07:34:00,
2013-05-20 02:39:00,55.8,51.0,27.08,WNW,292,3.8,7.8,84,0.00,,---,0.00,VWS V14.01,2013-05-20 07:39:00,
2013-05-20 02:44:00,55.6,51.2,27.08,NW,315,3.4,7.8,85,0.00,,---,0.00,VWS V14.01,2013-05-20 07:44:00,
2013-05-20 02:45:00,55.0,51.6,27.08,NW,315,6.5,7.2,88,0.00,,---,0.00,VWS V14.01,2013-05-20 07:45:00,
2013-05-20 02:49:00,55.4,51.0,27.08,NW,315,2.5,5.8,85,0.00,,---,0.00,VWS V14.01,2013-05-20 07:49:00,
2013-05-20 02:54:00,55.4,51.3,27.08,West,270,4.3,6.0,86,0.00,,---,0.00,VWS V14.01,2013-05-20 07:54:00,
2013-05-20 02:59:00,55.2,51.1,27.08,NW,315,3.4,6.0,86,0.00,,---,0.00,VWS V14.01,2013-05-20 07:59:00,
2013-05-20 03:00:00,55.4,51.6,27.08,West,270,6.5,7.2,87,0.00,,---,0.00,VWS V14.01,2013-05-20 08:00:00,
2013-05-20 03:04:00,54.9,50.8,27.08,NW,315,2.0,3.4,86,0.00,,---,0.00,VWS V14.01,2013-05-20 08:04:00,
2013-05-20 03:09:00,54.9,51.1,27.08,NW,315,3.6,5.4,87,0.00,,---,0.00,VWS V14.01,2013-05-20 08:09:00,
2013-05-20 03:14:00,54.9,51.1,27.08,NW,315,4.7,6.0,87,0.00,,---,0.00,VWS V14.01,2013-05-20 08:14:00,
2013-05-20 03:15:00,55.8,51.3,27.08,SW,225,7.6,8.7,85,0.00,,---,0.00,VWS V14.01,2013-05-20 08:15:00,
2013-05-20 03:19:00,54.9,51.1,27.08,NW,315,4.9,6.3,87,0.00,,---,0.00,VWS V14.01,2013-05-20 08:19:00,
2013-05-20 03:24:00,54.9,51.1,27.08,WNW,292,2.7,6.3,87,0.00,,---,0.00,VWS V14.01,2013-05-20 08:24:00,
2013-05-20 03:29:00,54.9,51.4,27.08,NW,315,4.0,6.7,88,0.00,,---,0.00,VWS V14.01,2013-05-20 08:29:00,
2013-05-20 03:30:00,56.1,51.7,27.08,WSW,248,8.7,11.4,85,0.00,,---,0.00,VWS V14.01,2013-05-20 08:30:00,
2013-05-20 03:34:00,54.9,51.4,27.08,NW,315,4.9,6.5,88,0.00,,---,0.00,VWS V14.01,2013-05-20 08:34:00,
2013-05-20 03:39:00,55.0,51.6,27.08,NW,315,2.9,7.2,88,0.00,,---,0.00,VWS V14.01,2013-05-20 08:39:00,
2013-05-20 03:44:00,55.0,51.6,27.08,NW,315,4.0,7.2,88,0.00,,---,0.00,VWS V14.01,2013-05-20 08:44:00,
2013-05-20 03:45:00,56.1,51.7,27.08,WNW,292,5.6,12.5,85,0.00,,---,0.00,VWS V14.01,2013-05-20 08:45:00,
2013-05-20 03:49:00,55.2,51.4,27.08,WNW,292,3.1,6.5,87,0.00,,---,0.00,VWS V14.01,2013-05-20 08:49:00,
2013-05-20 03:54:00,55.2,51.4,27.08,West,270,4.3,6.5,87,0.00,,---,0.00,VWS V14.01,2013-05-20 08:54:00,
2013-05-20 03:59:00,55.4,51.6,27.08,WNW,292,4.7,7.2,87,0.00,,---,0.00,VWS V14.01,2013-05-20 08:59:00,
2013-05-20 04:00:00,55.9,52.1,27.08,NW,315,6.3,12.5,87,0.00,,---,0.00,VWS V14.01,2013-05-20 09:00:00,
2013-05-20 04:04:00,55.4,51.6,27.08,WNW,292,4.9,6.5,87,0.00,,---,0.00,VWS V14.01,2013-05-20 09:04:00,
2013-05-20 04:09:00,55.6,51.5,27.08,NW,315,5.4,6.5,86,0.00,,---,0.00,VWS V14.01,2013-05-20 09:09:00,
2013-05-20 04:14:00,55.8,51.6,27.08,West,270,7.6,8.7,86,0.00,,---,0.00,VWS V14.01,2013-05-20 09:14:00,
2013-05-20 04:15:00,55.6,52.1,27.08,NW,315,11.0,14.8,88,0.00,,---,0.00,VWS V14.01,2013-05-20 09:15:00,
2013-05-20 04:19:00,55.8,51.3,27.08,West,270,6.5,7.6,85,0.00,,---,0.00,VWS V14.01,2013-05-20 09:19:00,
2013-05-20 04:24:00,55.9,51.5,27.08,NW,315,5.4,7.8,85,0.00,,---,0.00,VWS V14.01,2013-05-20 09:24:00,
2013-05-20 04:29:00,56.1,51.7,27.08,WNW,292,11.4,11.4,85,0.00,,---,0.00,VWS V14.01,2013-05-20 09:29:00,
2013-05-20 04:30:00,55.4,52.5,27.08,NW,315,8.5,12.8,90,0.00,,---,0.00,VWS V14.01,2013-05-20 09:30:00,
2013-05-20 04:34:00,56.1,51.7,27.08,NW,315,7.4,9.8,85,0.00,,---,0.00,VWS V14.01,2013-05-20 09:34:00,
2013-05-20 04:39:00,56.1,51.7,27.08,West,270,7.8,11.0,85,0.00,,---,0.00,VWS V14.01,2013-05-20 09:39:00,
2013-05-20 04:44:00,56.1,51.7,27.08,WNW,292,10.1,12.5,85,0.00,,---,0.00,VWS V14.01,2013-05-20 09:44:00,
2013-05-20 04:45:00,55.2,52.9,27.08,NW,315,13.2,13.2,92,0.00,,---,0.00,VWS V14.01,2013-05-20 09:45:00,
2013-05-20 04:49:00,56.1,52.0,27.08,West,270,6.7,12.5,86,0.00,,---,0.00,VWS V14.01,2013-05-20 09:49:00,
2013-05-20 04:54:00,55.9,51.8,27.08,WNW,292,5.4,12.5,86,0.00,,---,0.00,VWS V14.01,2013-05-20 09:54:00,
2013-05-20 04:59:00,55.9,52.1,27.08,West,270,5.4,12.5,87,0.00,,---,0.00,VWS V14.01,2013-05-20 09:59:00,
2013-05-20 05:00:00,55.0,53.1,27.08,NNW,338,9.6,15.4,93,0.00,,---,0.00,VWS V14.01,2013-05-20 10:00:00,
2013-05-20 05:04:00,55.8,52.0,27.08,West,270,8.1,14.8,87,0.00,,---,0.00,VWS V14.01,2013-05-20 10:04:00,
2013-05-20 05:09:00,55.8,52.3,27.08,NW,315,8.7,14.8,88,0.00,,---,0.00,VWS V14.01,2013-05-20 10:09:00,
2013-05-20 05:14:00,55.8,52.3,27.08,West,270,8.7,14.8,88,0.00,,---,0.00,VWS V14.01,2013-05-20 10:14:00,
2013-05-20 05:15:00,55.0,52.2,27.08,West,270,9.8,16.1,90,0.00,,---,0.00,VWS V14.01,2013-05-20 10:15:00,
2013-05-20 05:19:00,55.6,52.4,27.08,NW,315,7.8,12.8,89,0.00,,---,0.00,VWS V14.01,2013-05-20 10:19:00,
2013-05-20 05:24:00,55.4,52.5,27.08,NW,315,6.3,12.8,90,0.00,,---,0.00,VWS V14.01,2013-05-20 10:24:00,
2013-05-20 05:29:00,55.4,52.5,27.08,NW,315,8.7,12.8,90,0.00,,---,0.00,VWS V14.01,2013-05-20 10:29:00,
2013-05-20 05:30:00,55.0,51.9,27.08,NW,315,10.1,16.3,89,0.00,,---,0.00,VWS V14.01,2013-05-20 10:30:00,
2013-05-20 05:34:00,55.4,52.5,27.08,West,270,11.4,13.2,90,0.00,,---,0.00,VWS V14.01,2013-05-20 10:34:00,
2013-05-20 05:39:00,55.2,52.6,27.08,WNW,292,13.2,13.2,91,0.00,,---,0.00,VWS V14.01,2013-05-20 10:39:00,
2013-05-20 05:44:00,55.2,52.9,27.08,NW,315,13.2,13.2,92,0.00,,---,0.00,VWS V14.01,2013-05-20 10:44:00,
2013-05-20 05:45:00,55.4,51.6,27.08,WNW,292,12.5,13.6,87,0.00,,---,0.00,VWS V14.01,2013-05-20 10:45:00,
2013-05-20 05:49:00,55.2,52.9,27.08,NW,315,8.5,13.2,92,0.00,,---,0.00,VWS V14.01,2013-05-20 10:49:00,
2013-05-20 05:54:00,55.0,53.1,27.08,NW,315,10.1,15.4,93,0.00,,---,0.00,VWS V14.01,2013-05-20 10:54:00,
2013-05-20 05:59:00,55.0,53.1,27.08,WNW,292,10.7,15.4,93,0.00,,---,0.00,VWS V14.01,2013-05-20 10:59:00,
2013-05-20 06:00:00,55.8,50.7,27.08,NW,315,16.8,26.6,83,0.00,,---,0.00,VWS V14.01,2013-05-20 11:00:00,
2013-05-20 06:04:00,55.0,52.8,27.08,West,270,9.8,16.1,92,0.00,,---,0.00,VWS V14.01,2013-05-20 11:04:00,
2013-05-20 06:09:00,55.0,52.5,27.08,NW,315,7.8,16.1,91,0.00,,---,0.00,VWS V14.01,2013-05-20 11:09:00,
2013-05-20 06:14:00,55.0,52.2,27.08,WNW,292,9.2,16.1,90,0.00,,---,0.00,VWS V14.01,2013-05-20 11:14:00,
2013-05-20 06:15:00,55.4,49.7,27.08,WNW,292,12.5,19.9,81,0.00,,---,0.00,VWS V14.01,2013-05-20 11:15:00,
2013-05-20 06:19:00,55.0,51.6,27.08,WNW,292,12.1,13.0,88,0.00,,---,0.00,VWS V14.01,2013-05-20 11:19:00,
2013-05-20 06:24:00,55.0,51.6,27.08,West,270,7.6,16.3,88,0.00,,---,0.00,VWS V14.01,2013-05-20 11:24:00,
2013-05-20 06:29:00,55.0,51.6,27.08,NW,315,7.4,16.3,88,0.00,,---,0.00,VWS V14.01,2013-05-20 11:29:00,
2013-05-20 06:30:00,57.2,50.4,27.08,WNW,292,12.5,12.5,78,0.00,,---,0.00,VWS V14.01,2013-05-20 11:30:00,
2013-05-20 06:34:00,55.0,51.6,27.08,NW,315,13.0,13.6,88,0.00,,---,0.00,VWS V14.01,2013-05-20 11:34:00,
2013-05-20 06:39:00,55.2,51.7,27.08,NW,315,7.4,13.6,88,0.00,,---,0.00,VWS V14.01,2013-05-20 11:39:00,
2013-05-20 06:44:00,55.4,51.6,27.08,NW,315,10.7,13.6,87,0.00,,---,0.00,VWS V14.01,2013-05-20 11:44:00,
2013-05-20 06:45:00,58.5,49.8,27.08,NW,315,8.7,15.4,73,0.00,,---,0.00,VWS V14.01,2013-05-20 11:45:00,
2013-05-20 06:49:00,55.4,51.3,27.08,NW,315,13.2,17.5,86,0.00,,---,0.00,VWS V14.01,2013-05-20 11:49:00,
2013-05-20 06:54:00,55.8,50.7,27.08,NW,315,17.9,26.6,83,0.00,,---,0.00,VWS V14.01,2013-05-20 11:54:00,
2013-05-20 06:59:00,55.8,50.4,27.08,NW,315,19.5,26.6,82,0.00,,---,0.00,VWS V14.01,2013-05-20 11:59:00,
2013-05-20 07:00:00,58.5,50.2,27.08,WNW,292,9.2,14.8,74,0.00,,---,0.00,VWS V14.01,2013-05-20 12:00:00,
2013-05-20 07:04:00,55.6,50.2,27.08,NW,315,19.9,19.9,82,0.00,,---,0.00,VWS V14.01,2013-05-20 12:04:00,
2013-05-20 07:09:00,55.6,49.8,27.08,NW,315,10.3,19.9,81,0.00,,---,0.00,VWS V14.01,2013-05-20 12:09:00,
2013-05-20 07:14:00,55.4,49.7,27.08,NW,315,14.8,19.9,81,0.00,,---,0.00,VWS V14.01,2013-05-20 12:14:00,
2013-05-20 07:15:00,57.7,48.0,27.08,WNW,292,10.1,21.0,70,0.00,,---,0.00,VWS V14.01,2013-05-20 12:15:00,
2013-05-20 07:19:00,55.4,49.3,27.08,NW,315,7.4,12.5,80,0.00,,---,0.00,VWS V14.01,2013-05-20 12:19:00,
2013-05-20 07:24:00,56.1,50.4,27.08,West,270,11.0,12.5,81,0.00,,---,0.00,VWS V14.01,2013-05-20 12:24:00,
2013-05-20 07:29:00,57.0,50.6,27.08,West,270,6.5,12.5,79,0.00,,---,0.00,VWS V14.01,2013-05-20 12:29:00,
2013-05-20 07:30:00,57.6,46.3,27.08,West,270,16.6,22.6,66,0.00,,---,0.00,VWS V14.01,2013-05-20 12:30:00,
2013-05-20 07:34:00,58.1,50.6,27.08,West,270,8.7,13.0,76,0.00,,---,0.00,VWS V14.01,2013-05-20 12:34:00,
2013-05-20 07:39:00,59.0,50.7,27.08,NW,315,8.7,13.0,74,0.00,,---,0.00,VWS V14.01,2013-05-20 12:39:00,
2013-05-20 07:44:00,58.8,50.2,27.08,WNW,292,13.2,15.4,73,0.00,,---,0.00,VWS V14.01,2013-05-20 12:44:00,
2013-05-20 07:45:00,59.2,48.2,27.08,NW,315,12.8,20.4,67,0.00,,---,0.00,VWS V14.01,2013-05-20 12:45:00,
2013-05-20 07:49:00,58.1,49.5,27.08,WNW,292,12.1,13.2,73,0.00,,---,0.00,VWS V14.01,2013-05-20 12:49:00,
2013-05-20 07:54:00,57.2,49.0,27.08,WNW,292,12.1,14.8,74,0.00,,---,0.00,VWS V14.01,2013-05-20 12:54:00,
2013-05-20 07:59:00,58.1,49.9,27.08,NW,315,10.1,14.8,74,0.00,,---,0.00,VWS V14.01,2013-05-20 12:59:00,
2013-05-20 08:00:00,62.8,46.4,27.08,WNW,292,17.2,18.8,55,0.00,,---,0.00,VWS V14.01,2013-05-20 13:00:00,
2013-05-20 08:04:00,58.6,49.7,27.08,NW,315,15.4,15.4,72,0.00,,---,0.00,VWS V14.01,2013-05-20 13:04:00,
2013-05-20 08:09:00,58.1,48.8,27.08,WNW,292,6.3,17.5,71,0.00,,---,0.00,VWS V14.01,2013-05-20 13:09:00,
2013-05-20 08:14:00,57.7,48.0,27.08,WNW,292,19.9,21.0,70,0.00,,---,0.00,VWS V14.01,2013-05-20 13:14:00,
2013-05-20 08:15:00,63.5,44.5,27.08,West,270,9.4,26.4,50,0.00,,---,0.00,VWS V14.01,2013-05-20 13:15:00,
2013-05-20 08:19:00,57.6,47.9,27.08,NW,315,7.8,19.5,70,0.00,,---,0.00,VWS V14.01,2013-05-20 13:19:00,
2013-05-20 08:24:00,57.6,46.7,27.08,NW,315,16.6,22.6,67,0.00,,---,0.00,VWS V14.01,2013-05-20 13:24:00,
2013-05-20 08:29:00,57.6,46.3,27.08,NW,315,16.8,22.6,66,0.00,,---,0.00,VWS V14.01,2013-05-20 13:29:00,
2013-05-20 08:34:00,57.7,46.5,27.08,NW,315,16.3,17.7,66,0.00,,---,0.00,VWS V14.01,2013-05-20 13:34:00,
2013-05-20 08:39:00,58.1,47.2,27.08,WNW,292,15.9,20.4,67,0.00,,---,0.00,VWS V14.01,2013-05-20 13:39:00,
2013-05-20 08:44:00,58.5,48.0,27.08,NW,315,13.6,20.4,68,0.00,,---,0.00,VWS V14.01,2013-05-20 13:44:00,
2013-05-20 08:45:00,64.0,44.0,27.08,NW,315,23.0,27.3,48,0.00,,---,0.00,VWS V14.01,2013-05-20 13:45:00,
2013-05-20 08:49:00,61.2,48.9,27.08,NW,315,7.8,17.2,64,0.00,,---,0.00,VWS V14.01,2013-05-20 13:49:00,
2013-05-20 08:54:00,61.9,47.0,27.08,West,270,14.8,17.7,58,0.00,,---,0.00,VWS V14.01,2013-05-20 13:54:00,
2013-05-20 08:59:00,62.8,46.4,27.08,West,270,13.2,18.8,55,0.00,,---,0.00,VWS V14.01,2013-05-20 13:59:00,
2013-05-20 09:00:00,63.5,42.9,27.08,NW,315,19.9,26.0,47,0.00,,---,0.00,VWS V14.01,2013-05-20 14:00:00,
2013-05-20 09:04:00,62.8,45.4,27.08,NW,315,19.0,24.2,53,0.00,,---,0.00,VWS V14.01,2013-05-20 14:04:00,
2013-05-20 09:09:00,63.0,45.1,27.08,WNW,292,20.8,26.4,52,0.00,,---,0.00,VWS V14.01,2013-05-20 14:09:00,
2013-05-20 09:14:00,63.1,44.7,27.08,NW,315,18.8,26.4,51,0.00,,---,0.00,VWS V14.01,2013-05-20 14:14:00,
2013-05-20 09:15:00,66.0,44.7,27.08,NNW,338,15.4,23.3,46,0.00,,---,0.00,VWS V14.01,2013-05-20 14:15:00,
2013-05-20 09:19:00,64.2,45.2,27.08,NW,315,25.3,25.3,50,0.00,,---,0.00,VWS V14.01,2013-05-20 14:19:00,
2013-05-20 09:24:00,64.2,44.7,27.08,NW,315,7.2,27.3,49,0.00,,---,0.00,VWS V14.01,2013-05-20 14:24:00,
2013-05-20 09:29:00,64.9,44.8,27.08,WNW,292,21.5,27.3,48,0.00,,---,0.00,VWS V14.01,2013-05-20 14:29:00,
2013-05-20 09:30:00,64.6,43.9,27.08,NW,315,11.2,25.3,47,0.00,,---,0.00,VWS V14.01,2013-05-20 14:30:00,
2013-05-20 09:34:00,64.8,44.6,27.08,WNW,292,8.7,27.3,48,0.00,,---,0.00,VWS V14.01,2013-05-20 14:34:00,
2013-05-20 09:39:00,65.3,45.1,27.08,West,270,22.2,27.3,48,0.00,,---,0.00,VWS V14.01,2013-05-20 14:39:00,
2013-05-20 09:44:00,64.6,43.9,27.08,WNW,292,23.9,27.3,47,0.00,,---,0.00,VWS V14.01,2013-05-20 14:44:00,
2013-05-20 09:45:00,63.5,42.4,27.08,WNW,292,15.4,25.3,46,0.00,,---,0.00,VWS V14.01,2013-05-20 14:45:00,
2013-05-20 09:49:00,64.2,44.1,27.08,NW,315,12.3,26.0,48,0.00,,---,0.00,VWS V14.01,2013-05-20 14:49:00,
2013-05-20 09:54:00,64.8,44.1,27.08,NW,315,10.7,26.0,47,0.00,,---,0.00,VWS V14.01,2013-05-20 14:54:00,
2013-05-20 09:59:00,63.7,43.6,27.08,NW,315,16.3,26.0,48,0.00,,---,0.00,VWS V14.01,2013-05-20 14:59:00,
2013-05-20 10:00:00,63.1,42.0,27.08,West,270,20.4,23.7,46,0.00,,---,0.00,VWS V14.01,2013-05-20 15:00:00,
2013-05-20 10:04:00,63.9,43.3,27.08,WNW,292,20.8,23.0,47,0.00,,---,0.00,VWS V14.01,2013-05-20 15:04:00,
2013-05-20 10:09:00,65.1,44.4,27.08,WNW,292,14.3,23.3,47,0.00,,---,0.00,VWS V14.01,2013-05-20 15:09:00,
2013-05-20 10:14:00,65.8,44.5,27.08,NW,315,15.7,23.3,46,0.00,,---,0.00,VWS V14.01,2013-05-20 15:14:00,
2013-05-20 10:15:00,63.1,41.5,27.08,NW,315,21.5,23.5,45,0.00,,---,0.00,VWS V14.01,2013-05-20 15:15:00,
2013-05-20 10:19:00,66.2,44.8,27.08,NW,315,19.9,25.3,46,0.00,,---,0.00,VWS V14.01,2013-05-20 15:19:00,
2013-05-20 10:24:00,65.8,43.9,27.08,WNW,292,13.2,25.3,45,0.00,,---,0.00,VWS V14.01,2013-05-20 15:24:00,
2013-05-20 10:29:00,64.0,43.4,27.08,NW,315,16.3,25.3,47,0.00,,---,0.00,VWS V14.01,2013-05-20 15:29:00,
2013-05-20 10:30:00,63.5,41.2,27.08,NW,315,25.7,30.2,44,0.00,,---,0.00,VWS V14.01,2013-05-20 15:30:00,
2013-05-20 10:34:00,65.7,44.3,27.08,NW,315,10.1,20.6,46,0.00,,---,0.00,VWS V14.01,2013-05-20 15:34:00,
2013-05-20 10:39:00,64.6,43.4,27.08,NW,315,17.7,25.3,46,0.00,,---,0.00,VWS V14.01,2013-05-20 15:39:00,
2013-05-20 10:44:00,63.5,42.4,27.08,NW,315,11.2,25.3,46,0.00,,---,0.00,VWS V14.01,2013-05-20 15:44:00,
2013-05-20 10:45:00,64.2,41.3,27.08,WNW,292,21.0,28.6,43,0.00,,---,0.00,VWS V14.01,2013-05-20 15:45:00,
2013-05-20 10:49:00,63.1,42.0,27.08,NW,315,13.2,23.7,46,0.00,,---,0.00,VWS V14.01,2013-05-20 15:49:00,
2013-05-20 10:54:00,63.0,41.9,27.08,WNW,292,17.5,23.7,46,0.00,,---,0.00,VWS V14.01,2013-05-20 15:54:00,
2013-05-20 10:59:00,63.1,42.0,27.08,NW,315,10.3,23.7,46,0.00,,---,0.00,VWS V14.01,2013-05-20 15:59:00,
2013-05-20 11:00:00,64.0,41.1,27.08,WNW,292,23.9,28.0,43,0.00,,---,0.00,VWS V14.01,2013-05-20 16:00:00,
2013-05-20 11:04:00,62.6,42.1,27.08,West,270,13.0,23.5,47,0.00,,---,0.00,VWS V14.01,2013-05-20 16:04:00,
2013-05-20 11:09:00,63.9,42.7,27.08,NW,315,15.4,23.5,46,0.00,,---,0.00,VWS V14.01,2013-05-20 16:09:00,
2013-05-20 11:14:00,63.1,41.5,27.08,NW,315,17.5,23.5,45,0.00,,---,0.00,VWS V14.01,2013-05-20 16:14:00,
2013-05-20 11:15:00,64.4,41.4,27.08,NW,315,17.5,30.2,43,0.00,,---,0.00,VWS V14.01,2013-05-20 16:15:00,
2013-05-20 11:19:00,63.5,41.8,27.08,NW,315,17.5,22.6,45,0.00,,---,0.00,VWS V14.01,2013-05-20 16:19:00,
2013-05-20 11:24:00,63.7,42.0,27.08,NW,315,18.1,30.2,45,0.00,,---,0.00,VWS V14.01,2013-05-20 16:24:00,
2013-05-20 11:29:00,63.5,41.2,27.08,WNW,292,28.9,30.2,44,0.00,,---,0.00,VWS V14.01,2013-05-20 16:29:00,
2013-05-20 11:30:00,65.7,42.0,27.08,NW,315,21.3,26.2,42,0.00,,---,0.00,VWS V14.01,2013-05-20 16:30:00,
2013-05-20 11:34:00,64.2,41.9,27.08,NW,315,14.8,25.7,44,0.00,,---,0.00,VWS V14.01,2013-05-20 16:34:00,
2013-05-20 11:39:00,65.7,42.0,27.08,NW,315,26.4,26.4,42,0.00,,---,0.00,VWS V14.01,2013-05-20 16:39:00,
2013-05-20 11:44:00,64.2,41.3,27.08,North,0,23.9,28.6,43,0.00,,---,0.00,VWS V14.01,2013-05-20 16:44:00,
2013-05-20 11:45:00,65.3,41.0,27.08,West,270,19.5,28.0,41,0.00,,---,0.00,VWS V14.01,2013-05-20 16:45:00,
2013-05-20 11:49:00,64.8,41.8,27.08,NNW,338,12.5,21.0,43,0.00,,---,0.00,VWS V14.01,2013-05-20 16:49:00,
2013-05-20 11:54:00,64.4,41.4,27.08,NW,315,17.0,23.9,43,0.00,,---,0.00,VWS V14.01,2013-05-20 16:54:00,
2013-05-20 11:59:00,64.2,41.3,27.08,WNW,292,17.7,28.0,43,0.00,,---,0.00,VWS V14.01,2013-05-20 16:59:00,
2013-05-20 12:00:00,66.4,41.3,27.08,WNW,292,19.7,26.0,40,0.00,,---,0.00,VWS V14.01,2013-05-20 17:00:00,
2013-05-20 12:04:00,63.9,41.5,27.08,NW,315,9.8,23.9,44,0.00,,---,0.00,VWS V14.01,2013-05-20 17:04:00,
2013-05-20 12:09:00,64.2,41.9,27.08,WNW,292,25.3,25.3,44,0.00,,---,0.00,VWS V14.01,2013-05-20 17:09:00,
2013-05-20 12:14:00,64.6,41.6,27.08,NW,315,18.8,30.2,43,0.00,,---,0.00,VWS V14.01,2013-05-20 17:14:00,
2013-05-20 12:15:00,67.1,42.0,27.08,NW,315,22.2,26.2,40,0.00,,---,0.00,VWS V14.01,2013-05-20 17:15:00,
2013-05-20 12:19:00,64.0,41.7,27.08,NW,315,19.7,25.3,44,0.00,,---,0.00,VWS V14.01,2013-05-20 17:19:00,
2013-05-20 12:24:00,64.0,41.1,27.08,West,270,18.1,26.2,43,0.00,,---,0.00,VWS V14.01,2013-05-20 17:24:00,
2013-05-20 12:29:00,65.5,43.0,27.08,WNW,292,10.1,26.2,44,0.00,,---,0.00,VWS V14.01,2013-05-20 17:29:00,
2013-05-20 12:30:00,68.2,42.3,27.08,NW,315,17.5,27.5,39,0.00,,---,0.00,VWS V14.01,2013-05-20 17:30:00,
2013-05-20 12:34:00,65.5,42.4,27.08,NW,315,17.2,26.6,43,0.00,,---,0.00,VWS V14.01,2013-05-20 17:34:00,
2013-05-20 12:39:00,65.5,42.4,27.08,NW,315,19.2,28.0,43,0.00,,---,0.00,VWS V14.01,2013-05-20 17:39:00,
2013-05-20 12:44:00,65.8,42.1,27.08,NNW,338,13.4,28.0,42,0.00,,---,0.00,VWS V14.01,2013-05-20 17:44:00,
2013-05-20 12:45:00,63.9,41.0,27.08,WNW,292,15.9,29.8,43,0.00,,---,0.00,VWS V14.01,2013-05-20 17:45:00,
2013-05-20 12:49:00,65.5,41.8,27.08,WNW,292,22.2,22.2,42,0.00,,---,0.00,VWS V14.01,2013-05-20 17:49:00,
2013-05-20 12:54:00,66.4,42.0,27.08,NW,315,15.7,22.4,41,0.00,,---,0.00,VWS V14.01,2013-05-20 17:54:00,
2013-05-20 12:59:00,66.4,42.0,27.08,WNW,292,12.8,26.0,41,0.00,,---,0.00,VWS V14.01,2013-05-20 17:59:00,
2013-05-20 13:00:00,67.8,42.6,27.08,NW,315,30.0,30.0,40,0.00,,---,0.00,VWS V14.01,2013-05-20 18:00:00,
2013-05-20 13:04:00,65.7,41.3,27.08,West,270,17.5,23.7,41,0.00,,---,0.00,VWS V14.01,2013-05-20 18:04:00,
2013-05-20 13:09:00,66.0,41.7,27.08,WNW,292,17.2,26.2,41,0.00,,---,0.00,VWS V14.01,2013-05-20 18:09:00,
2013-05-20 13:14:00,67.6,43.1,27.08,WNW,292,22.4,26.2,41,0.00,,---,0.00,VWS V14.01,2013-05-20 18:14:00,
2013-05-20 13:15:00,68.9,43.6,27.08,West,270,25.5,30.2,40,0.00,,---,0.00,VWS V14.01,2013-05-20 18:15:00,
2013-05-20 13:19:00,66.4,41.3,27.08,NW,315,19.0,25.7,40,0.00,,---,0.00,VWS V14.01,2013-05-20 18:19:00,
2013-05-20 13:24:00,66.2,42.5,27.08,West,270,13.6,27.5,42,0.00,,---,0.00,VWS V14.01,2013-05-20 18:24:00,
2013-05-20 13:29:00,67.1,42.6,27.08,WNW,292,9.8,27.5,41,0.00,,---,0.00,VWS V14.01,2013-05-20 18:29:00,
2013-05-20 13:30:00,68.0,42.8,27.08,NNW,338,25.3,28.0,40,0.00,,---,0.00,VWS V14.01,2013-05-20 18:30:00,
2013-05-20 13:34:00,68.2,42.3,27.08,WNW,292,19.0,25.1,39,0.00,,---,0.00,VWS V14.01,2013-05-20 18:34:00,
2013-05-20 13:39:00,65.7,41.3,27.08,West,270,22.6,29.8,41,0.00,,---,0.00,VWS V14.01,2013-05-20 18:39:00,
2013-05-20 13:44:00,64.9,40.7,27.08,WNW,292,15.4,29.8,41,0.00,,---,0.00,VWS V14.01,2013-05-20 18:44:00,
2013-05-20 13:45:00,66.6,42.2,27.08,NW,315,21.9,36.7,41,0.00,,---,0.00,VWS V14.01,2013-05-20 18:45:00,
2013-05-20 13:49:00,63.7,40.8,27.08,West,270,15.2,28.4,43,0.00,,---,0.00,VWS V14.01,2013-05-20 18:49:00,
2013-05-20 13:54:00,64.4,40.8,27.08,West,270,19.5,28.4,42,0.00,,---,0.00,VWS V14.01,2013-05-20 18:54:00,
2013-05-20 13:59:00,67.1,42.0,27.08,NW,315,19.7,28.4,40,0.00,,---,0.00,VWS V14.01,2013-05-20 18:59:00,
2013-05-20 14:00:00,66.7,42.3,27.08,NW,315,26.9,34.2,41,0.00,,---,0.00,VWS V14.01,2013-05-20 19:00:00,
2013-05-20 14:04:00,68.2,43.0,27.08,NW,315,17.5,30.0,40,0.00,,---,0.00,VWS V14.01,2013-05-20 19:04:00,
2013-05-20 14:09:00,67.3,42.2,27.08,NW,315,20.1,30.0,40,0.00,,---,0.00,VWS V14.01,2013-05-20 19:09:00,
2013-05-20 14:14:00,68.0,42.8,27.08,NW,315,19.5,30.0,40,0.00,,---,0.00,VWS V14.01,2013-05-20 19:14:00,
2013-05-20 14:15:00,63.9,41.5,27.08,NW,315,26.6,35.4,44,0.00,,---,0.00,VWS V14.01,2013-05-20 19:15:00,
2013-05-20 14:19:00,68.9,43.0,27.08,WNW,292,17.7,26.2,39,0.00,,---,0.00,VWS V14.01,2013-05-20 19:19:00,
2013-05-20 14:25:00,68.4,43.1,27.08,NW,315,22.4,26.2,40,0.00,,---,0.00,VWS V14.01,2013-05-20 19:25:00,
2013-05-20 14:30:00,68.0,42.8,27.08,NNW,338,25.3,28.0,40,0.00,,---,0.00,VWS V14.01,2013-05-20 19:30:00,
2013-05-20 14:35:00,67.3,42.2,27.08,NW,315,24.4,36.7,40,0.00,,---,0.00,VWS V14.01,2013-05-20 19:35:00,
2013-05-20 14:40:00,66.6,42.2,27.08,West,270,17.7,36.7,41,0.00,,---,0.00,VWS V14.01,2013-05-20 19:40:00,
2013-05-20 14:45:00,66.6,42.2,27.08,WNW,292,23.9,36.7,41,0.00,,---,0.00,VWS V14.01,2013-05-20 19:45:00,
2013-05-20 14:50:00,65.1,42.1,27.08,WNW,292,26.6,26.6,43,0.00,,---,0.00,VWS V14.01,2013-05-20 19:50:00,
2013-05-20 14:55:00,66.6,42.2,27.08,NW,315,32.7,34.2,41,0.00,,---,0.00,VWS V14.01,2013-05-20 19:55:00,
2013-05-20 15:00:00,66.7,42.3,27.08,NW,315,33.1,34.2,41,0.00,,---,0.00,VWS V14.01,2013-05-20 20:00:00,
2013-05-20 15:05:00,65.1,41.5,27.08,NNW,338,17.7,30.2,42,0.00,,---,0.00,VWS V14.01,2013-05-20 20:05:00,
2013-05-20 15:10:00,63.5,40.6,27.08,NW,315,25.1,35.4,43,0.00,,---,0.00,VWS V14.01,2013-05-20 20:10:00,
2013-05-20 15:15:00,63.9,41.5,27.08,NW,315,26.4,35.4,44,0.00,,---,0.00,VWS V14.01,2013-05-20 20:15:00,
2013-05-20 15:20:00,66.2,43.1,27.08,NW,315,15.2,30.7,43,0.00,,---,0.00,VWS V14.01,2013-05-20 20:20:00,
2013-05-20 15:25:00,65.7,42.0,27.08,NW,315,27.7,30.7,42,0.00,,---,0.00,VWS V14.01,2013-05-20 20:25:00,
2013-05-20 15:30:00,66.2,41.8,27.08,NW,315,18.6,34.2,41,0.00,,---,0.00,VWS V14.01,2013-05-20 20:30:00,
2013-05-20 15:35:00,65.1,40.9,27.08,NW,315,20.6,32.0,41,0.00,,---,0.00,VWS V14.01,2013-05-20 20:35:00,
2013-05-20 15:40:00,65.5,41.8,27.08,NW,315,24.6,35.4,42,0.00,,---,0.00,VWS V14.01,2013-05-20 20:40:00,
2013-05-20 15:45:00,65.7,41.3,27.08,West,270,22.6,35.4,41,0.00,,---,0.00,VWS V14.01,2013-05-20 20:45:00,
2013-05-20 15:50:00,65.7,42.0,27.08,NW,315,23.3,37.1,42,0.00,,---,0.00,VWS V14.01,2013-05-20 20:50:00,
2013-05-20 15:55:00,65.8,41.5,27.08,NW,315,23.3,37.1,41,0.00,,---,0.00,VWS V14.01,2013-05-20 20:55:00,
2013-05-20 16:00:00,64.9,40.7,27.08,WNW,292,22.8,22.8,41,0.00,,---,0.00,VWS V14.01,2013-05-20 21:00:00,
2013-05-20 16:05:00,64.0,40.5,27.08,NW,315,28.0,28.0,42,0.00,,---,0.00,VWS V14.01,2013-05-20 21:05:00,
2013-05-20 16:10:00,63.0,40.1,27.08,NW,315,30.4,30.4,43,0.00,,---,0.00,VWS V14.01,2013-05-20 21:10:00,
2013-05-20 16:15:00,61.3,41.0,27.08,WNW,292,17.2,33.6,47,0.00,,---,0.00,VWS V14.01,2013-05-20 21:15:00,
2013-05-20 16:16:00,63.0,40.7,27.08,NW,315,17.5,22.4,44,0.00,,---,0.00,VWS V14.01,2013-05-20 21:16:00,
2013-05-20 16:21:00,62.8,40.6,27.08,NW,315,27.3,33.3,44,0.00,,---,0.00,VWS V14.01,2013-05-20 21:21:00,
2013-05-20 16:26:00,61.9,40.3,27.08,NW,315,28.0,35.1,45,0.00,,---,0.00,VWS V14.01,2013-05-20 21:26:00,
2013-05-20 16:30:00,61.7,41.8,27.08,NW,315,26.4,30.2,48,0.00,,---,0.00,VWS V14.01,2013-05-20 21:30:00,
2013-05-20 16:31:00,62.2,40.7,27.08,NW,315,27.7,35.1,45,0.00,,---,0.00,VWS V14.01,2013-05-20 21:31:00,
2013-05-20 16:36:00,63.0,41.3,27.08,NNW,338,24.2,35.1,45,0.00,,---,0.00,VWS V14.01,2013-05-20 21:36:00,
2013-05-20 16:41:00,62.8,41.2,27.08,NW,315,26.0,35.1,45,0.00,,---,0.00,VWS V14.01,2013-05-20 21:41:00,
2013-05-20 16:45:00,62.6,42.7,27.08,NW,315,26.0,33.6,48,0.00,,---,0.00,VWS V14.01,2013-05-20 21:45:00,
2013-05-20 16:46:00,63.1,41.5,27.08,NW,315,26.0,28.0,45,0.00,,---,0.00,VWS V14.01,2013-05-20 21:46:00,
2013-05-20 16:51:00,62.2,41.2,27.08,NW,315,25.3,32.9,46,0.00,,---,0.00,VWS V14.01,2013-05-20 21:51:00,
2013-05-20 16:56:00,62.1,41.1,27.08,NNW,338,23.7,32.9,46,0.00,,---,0.00,VWS V14.01,2013-05-20 21:56:00,
2013-05-20 17:00:00,61.3,42.0,27.08,NW,315,23.7,34.2,49,0.00,,---,0.00,VWS V14.01,2013-05-20 22:00:00,
2013-05-20 17:01:00,62.2,41.8,27.08,WNW,292,17.5,22.4,47,0.00,,---,0.00,VWS V14.01,2013-05-20 22:01:00,
2013-05-20 17:06:00,61.9,41.5,27.08,NW,315,25.3,27.5,47,0.00,,---,0.00,VWS V14.01,2013-05-20 22:06:00,
2013-05-20 17:11:00,61.3,41.0,27.08,NW,315,15.2,33.6,47,0.00,,---,0.00,VWS V14.01,2013-05-20 22:11:00,
2013-05-20 17:15:00,59.9,43.2,27.08,NW,315,22.4,34.5,54,0.00,,---,0.00,VWS V14.01,2013-05-20 22:15:00,
2013-05-20 17:16:00,61.3,41.0,27.08,West,270,13.9,24.6,47,0.00,,---,0.00,VWS V14.01,2013-05-20 22:16:00,
2013-05-20 17:21:00,61.0,40.6,27.08,NW,315,30.2,30.2,47,0.00,,---,0.00,VWS V14.01,2013-05-20 22:21:00,
2013-05-20 17:26:00,61.3,41.5,27.08,NW,315,23.3,30.2,48,0.00,,---,0.00,VWS V14.01,2013-05-20 22:26:00,
2013-05-20 17:30:00,57.9,46.2,27.08,NW,315,14.8,26.9,65,0.00,,---,0.00,VWS V14.01,2013-05-20 22:30:00,
2013-05-20 17:31:00,61.5,41.1,27.08,NW,315,30.7,30.7,47,0.00,,---,0.00,VWS V14.01,2013-05-20 22:31:00,
2013-05-20 17:36:00,62.1,42.2,27.08,NW,315,26.6,30.7,48,0.00,,---,0.00,VWS V14.01,2013-05-20 22:36:00,
2013-05-20 17:41:00,62.1,42.2,27.08,NW,315,33.6,33.6,48,0.00,,---,0.00,VWS V14.01,2013-05-20 22:41:00,
2013-05-20 17:45:00,57.0,48.1,27.08,NW,315,8.5,19.5,72,0.00,,---,0.00,VWS V14.01,2013-05-20 22:45:00,
2013-05-20 17:46:00,62.6,42.7,27.08,NW,315,23.9,26.0,48,0.00,,---,0.00,VWS V14.01,2013-05-20 22:46:00,
2013-05-20 17:51:00,63.0,42.4,27.08,NW,315,26.4,28.4,47,0.00,,---,0.00,VWS V14.01,2013-05-20 22:51:00,
2013-05-20 17:56:00,61.3,41.5,27.08,NW,315,24.2,34.2,48,0.00,,---,0.00,VWS V14.01,2013-05-20 22:56:00,
2013-05-20 18:00:00,57.6,47.1,27.08,West,270,13.0,21.9,68,0.00,,---,0.00,VWS V14.01,2013-05-20 23:00:00,
2013-05-20 18:01:00,61.2,41.9,27.08,NW,315,27.5,34.5,49,0.00,,---,0.00,VWS V14.01,2013-05-20 23:01:00,
2013-05-20 18:06:00,60.6,42.4,27.08,NW,315,30.0,34.5,51,0.00,,---,0.00,VWS V14.01,2013-05-20 23:06:00,
2013-05-20 18:11:00,60.3,43.1,27.08,NW,315,16.1,34.5,53,0.00,,---,0.00,VWS V14.01,2013-05-20 23:11:00,
2013-05-20 18:15:00,58.5,45.1,27.08,NW,315,26.0,26.0,61,0.00,,---,0.00,VWS V14.01,2013-05-20 23:15:00,
2013-05-20 18:16:00,59.7,43.5,27.08,NW,315,12.8,24.6,55,0.00,,---,0.00,VWS V14.01,2013-05-20 23:16:00,
2013-05-20 18:21:00,59.4,44.1,27.08,NW,315,19.0,25.3,57,0.00,,---,0.00,VWS V14.01,2013-05-20 23:21:00,
2013-05-20 18:26:00,58.6,45.2,27.08,NW,315,11.0,26.9,61,0.00,,---,0.00,VWS V14.01,2013-05-20 23:26:00,
2013-05-20 18:30:00,61.0,45.2,27.08,WNW,292,14.3,28.6,56,0.00,,---,0.00,VWS V14.01,2013-05-20 23:30:00,
2013-05-20 18:31:00,57.7,46.5,27.08,NW,315,10.7,17.5,66,0.00,,---,0.00,VWS V14.01,2013-05-20 23:31:00,
2013-05-20 18:36:00,57.6,46.7,27.08,WNW,292,14.8,19.5,67,0.00,,---,0.00,VWS V14.01,2013-05-20 23:36:00,
2013-05-20 18:41:00,57.2,47.5,27.08,West,270,14.5,19.5,70,0.00,,---,0.00,VWS V14.01,2013-05-20 23:41:00,
2013-05-20 18:46:00,57.0,48.1,27.08,NW,315,8.5,8.5,72,0.00,,---,0.00,VWS V14.01,2013-05-20 23:46:00,
2013-05-20 18:51:00,56.8,47.2,27.08,WNW,292,15.7,17.5,70,0.00,,---,0.00,VWS V14.01,2013-05-20 23:51:00,
2013-05-20 18:56:00,57.2,46.8,27.08,NW,315,15.7,17.9,68,0.00,,---,0.00,VWS V14.01,2013-05-20 23:56:00,
2013-05-20 19:00:00,58.5,43.8,27.08,NNW,338,15.2,30.2,58,0.00,,---,0.00,VWS V14.01,2013-05-21 00:00:00,
2013-05-20 19:01:00,57.6,47.1,27.08,WNW,292,11.2,13.0,68,0.00,,---,0.00,VWS V14.01,2013-05-21 00:01:00,
2013-05-20 19:06:00,57.9,47.4,27.08,NW,315,12.1,14.1,68,0.00,,---,0.00,VWS V14.01,2013-05-21 00:06:00,
2013-05-20 19:11:00,57.9,47.0,27.08,NW,315,16.8,20.6,67,0.00,,---,0.00,VWS V14.01,2013-05-21 00:11:00,
2013-05-20 19:15:00,57.7,44.0,27.08,NW,315,23.0,25.3,60,0.00,,---,0.00,VWS V14.01,2013-05-21 00:15:00,
2013-05-20 19:16:00,58.6,45.2,27.08,NW,315,23.9,26.0,61,0.00,,---,0.00,VWS V14.01,2013-05-21 00:16:00,
2013-05-20 19:21:00,59.4,44.6,27.08,NW,315,27.3,28.6,58,0.00,,---,0.00,VWS V14.01,2013-05-21 00:21:00,
2013-05-20 19:26:00,60.1,45.3,27.08,NW,315,23.3,28.6,58,0.00,,---,0.00,VWS V14.01,2013-05-21 00:26:00,
2013-05-20 19:30:00,57.2,44.7,27.08,NNW,338,17.7,24.2,63,0.00,,---,0.00,VWS V14.01,2013-05-21 00:30:00,
2013-05-20 19:31:00,61.0,45.2,27.08,West,270,20.1,20.1,56,0.00,,---,0.00,VWS V14.01,2013-05-21 00:31:00,
2013-05-20 19:36:00,61.3,44.6,27.08,NW,315,15.9,23.9,54,0.00,,---,0.00,VWS V14.01,2013-05-21 00:36:00,
2013-05-20 19:41:00,60.8,44.1,27.08,West,270,19.2,26.0,54,0.00,,---,0.00,VWS V14.01,2013-05-21 00:41:00,
2013-05-20 19:45:00,56.8,44.8,27.08,NW,315,16.6,27.5,64,0.00,,---,0.00,VWS V14.01,2013-05-21 00:45:00,
2013-05-20 19:46:00,60.6,43.9,27.08,NW,315,19.0,23.0,54,0.00,,---,0.00,VWS V14.01,2013-05-21 00:46:00,
2013-05-20 19:51:00,59.4,43.2,27.08,NNW,338,19.9,30.2,55,0.00,,---,0.00,VWS V14.01,2013-05-21 00:51:00,
2013-05-20 19:56:00,58.8,43.6,27.08,NW,315,22.4,30.2,57,0.00,,---,0.00,VWS V14.01,2013-05-21 00:56:00,
2013-05-20 20:00:00,56.7,44.6,27.08,NW,315,17.0,23.3,64,0.00,,---,0.00,VWS V14.01,2013-05-21 01:00:00,
2013-05-20 20:01:00,58.3,44.0,27.08,NW,315,22.4,22.4,59,0.00,,---,0.00,VWS V14.01,2013-05-21 01:01:00,
2013-05-20 20:06:00,58.1,43.9,27.08,NW,315,19.9,22.4,59,0.00,,---,0.00,VWS V14.01,2013-05-21 01:06:00,
2013-05-20 20:11:00,57.9,44.1,27.08,NW,315,12.3,24.4,60,0.00,,---,0.00,VWS V14.01,2013-05-21 01:11:00,
2013-05-20 20:15:00,56.5,44.0,27.08,NW,315,17.5,31.3,63,0.00,,---,0.00,VWS V14.01,2013-05-21 01:15:00,
2013-05-20 20:16:00,57.6,43.8,27.08,NW,315,23.0,23.0,60,0.00,,---,0.00,VWS V14.01,2013-05-21 01:16:00,
2013-05-20 20:21:00,57.4,44.1,27.08,NW,315,21.5,24.2,61,0.00,,---,0.00,VWS V14.01,2013-05-21 01:21:00,
2013-05-20 20:26:00,57.2,44.7,27.08,NNW,338,14.3,24.2,63,0.00,,---,0.00,VWS V14.01,2013-05-21 01:26:00,
2013-05-20 20:30:00,56.1,44.9,27.08,NW,315,19.9,32.2,66,0.00,,---,0.00,VWS V14.01,2013-05-21 01:30:00,
2013-05-20 20:31:00,57.0,45.0,27.08,NW,315,23.9,23.9,64,0.00,,---,0.00,VWS V14.01,2013-05-21 01:31:00,
2013-05-20 20:36:00,57.0,44.6,27.08,NW,315,15.4,23.9,63,0.00,,---,0.00,VWS V14.01,2013-05-21 01:36:00,
2013-05-20 20:41:00,56.8,44.8,27.08,NW,315,22.2,27.5,64,0.00,,---,0.00,VWS V14.01,2013-05-21 01:41:00,
2013-05-20 20:45:00,55.6,45.6,27.08,NW,315,18.6,21.0,69,0.00,,---,0.00,VWS V14.01,2013-05-21 01:45:00,
2013-05-20 20:46:00,56.8,44.8,27.08,NW,315,13.4,17.9,64,0.00,,---,0.00,VWS V14.01,2013-05-21 01:46:00,
2013-05-20 20:51:00,56.7,44.6,27.08,NW,315,13.0,21.3,64,0.00,,---,0.00,VWS V14.01,2013-05-21 01:51:00,
2013-05-20 20:56:00,56.7,44.6,27.08,NW,315,15.4,22.6,64,0.00,,---,0.00,VWS V14.01,2013-05-21 01:56:00,
2013-05-20 21:00:00,55.8,45.4,27.08,NW,315,19.9,23.7,68,0.00,,---,0.00,VWS V14.01,2013-05-21 02:00:00,
2013-05-20 21:01:00,56.7,44.2,27.08,NW,315,19.9,22.2,63,0.00,,---,0.00,VWS V14.01,2013-05-21 02:01:00,
2013-05-20 21:06:00,56.7,43.8,27.08,NW,315,25.3,31.3,62,0.00,,---,0.00,VWS V14.01,2013-05-21 02:06:00,
2013-05-20 21:11:00,56.7,43.8,27.08,NNW,338,22.6,31.3,62,0.00,,---,0.00,VWS V14.01,2013-05-21 02:11:00,
2013-05-20 21:15:00,55.6,45.2,27.08,NW,315,8.7,19.9,68,0.00,,---,0.00,VWS V14.01,2013-05-21 02:15:00,
2013-05-20 21:16:00,56.5,44.0,27.08,NW,315,23.7,32.2,63,0.00,,---,0.00,VWS V14.01,2013-05-21 02:16:00,
2013-05-20 21:21:00,56.3,44.3,27.08,NW,315,25.1,32.2,64,0.00,,---,0.00,VWS V14.01,2013-05-21 02:21:00,
2013-05-20 21:26:00,56.3,44.3,27.08,NW,315,23.7,32.2,64,0.00,,---,0.00,VWS V14.01,2013-05-21 02:26:00,
2013-05-20 21:31:00,56.1,44.9,27.08,NNW,338,17.7,19.9,66,0.00,,---,0.00,VWS V14.01,2013-05-21 02:31:00,
2013-05-20 21:36:00,55.9,45.2,27.08,NW,315,15.2,21.0,67,0.00,,---,0.00,VWS V14.01,2013-05-21 02:36:00,
2013-05-20 21:41:00,55.8,45.8,27.08,NW,315,13.0,21.0,69,0.00,,---,0.00,VWS V14.01,2013-05-21 02:41:00,
2013-05-20 21:45:00,54.5,44.9,27.08,WNW,292,5.8,15.4,70,0.00,,---,0.00,VWS V14.01,2013-05-21 02:45:00,
2013-05-20 21:46:00,55.6,45.6,27.08,NNW,338,17.2,18.6,69,0.00,,---,0.00,VWS V14.01,2013-05-21 02:46:00,
2013-05-20 21:51:00,55.8,45.8,27.08,NW,315,14.1,18.6,69,0.00,,---,0.00,VWS V14.01,2013-05-21 02:51:00,
2013-05-20 21:56:00,55.8,45.8,27.08,NW,315,13.0,23.7,69,0.00,,---,0.00,VWS V14.01,2013-05-21 02:56:00,
2013-05-20 21:59:00,54.3,45.5,27.08,West,270,9.6,14.5,72,0.00,,---,0.00,VWS V14.01,2013-05-21 02:59:00,
2013-05-20 22:00:00,54.3,45.5,27.08,West,270,9.6,14.5,72,0.00,,---,0.00,VWS V14.01,2013-05-21 03:00:00,
2013-05-20 22:01:00,55.9,45.5,27.08,NW,315,13.2,19.9,68,0.00,,---,0.00,VWS V14.01,2013-05-21 03:01:00,
2013-05-20 22:02:00,54.3,45.5,27.08,NW,315,7.8,9.6,72,0.00,,---,0.00,VWS V14.01,2013-05-21 03:02:00,
2013-05-20 22:03:00,54.3,45.5,27.08,WNW,292,6.3,12.5,72,0.00,,---,0.00,VWS V14.01,2013-05-21 03:03:00,
2013-05-20 22:04:00,54.3,45.5,27.08,NW,315,7.2,12.5,72,0.00,,---,0.00,VWS V14.01,2013-05-21 03:04:00,
2013-05-20 22:07:00,55.8,45.0,27.08,NNW,338,13.2,19.9,67,0.00,,---,0.00,VWS V14.01,2013-05-21 03:07:00,
2013-05-20 22:12:00,55.8,45.4,27.08,NW,315,7.8,19.9,68,0.00,,---,0.00,VWS V14.01,2013-05-21 03:12:00,
2013-05-20 22:15:00,54.5,45.3,27.08,NW,315,6.3,12.8,71,0.00,,---,0.00,VWS V14.01,2013-05-21 03:15:00,
2013-05-20 22:17:00,55.6,45.2,27.08,NW,315,10.3,10.3,68,0.00,,---,0.00,VWS V14.01,2013-05-21 03:17:00,
2013-05-20 22:22:00,55.2,45.2,27.08,West,270,8.1,12.3,69,0.00,,---,0.00,VWS V14.01,2013-05-21 03:22:00,
2013-05-20 22:27:00,55.0,45.5,27.08,NW,315,11.2,15.4,70,0.00,,---,0.00,VWS V14.01,2013-05-21 03:27:00,
2013-05-20 22:30:00,54.3,44.8,27.08,NW,315,11.0,13.9,70,0.00,,---,0.00,VWS V14.01,2013-05-21 03:30:00,
2013-05-20 22:32:00,55.0,45.1,27.08,NNW,338,10.3,15.4,69,0.00,,---,0.00,VWS V14.01,2013-05-21 03:32:00,
2013-05-20 22:37:00,54.9,44.9,27.08,NW,315,10.7,15.4,69,0.00,,---,0.00,VWS V14.01,2013-05-21 03:37:00,
2013-05-20 22:42:00,54.7,45.1,27.08,NW,315,8.5,15.4,70,0.00,,---,0.00,VWS V14.01,2013-05-21 03:42:00,
2013-05-20 22:45:00,53.8,44.6,27.08,WNW,292,4.9,13.6,71,0.00,,---,0.00,VWS V14.01,2013-05-21 03:45:00,
2013-05-20 22:47:00,54.5,44.9,27.08,NW,315,4.0,11.0,70,0.00,,---,0.00,VWS V14.01,2013-05-21 03:47:00,
2013-05-20 22:52:00,54.1,45.0,27.08,NW,315,3.8,11.0,71,0.00,,---,0.00,VWS V14.01,2013-05-21 03:52:00,
2013-05-20 22:57:00,54.1,45.3,27.08,NW,315,7.4,11.0,72,0.00,,---,0.00,VWS V14.01,2013-05-21 03:57:00,
2013-05-20 23:00:00,53.2,44.1,27.08,WNW,292,11.0,11.0,71,0.00,,---,0.00,VWS V14.01,2013-05-21 04:00:00,
2013-05-20 23:03:00,54.3,45.5,27.08,NW,315,7.4,12.5,72,0.00,,---,0.00,VWS V14.01,2013-05-21 04:03:00,
2013-05-20 23:08:00,54.3,45.5,27.08,WNW,292,9.8,12.5,72,0.00,,---,0.00,VWS V14.01,2013-05-21 04:08:00,
2013-05-20 23:13:00,54.5,45.7,27.08,NW,315,7.8,12.5,72,0.00,,---,0.00,VWS V14.01,2013-05-21 04:13:00,
2013-05-20 23:15:00,53.6,44.1,27.08,West,270,4.5,12.3,70,0.00,,---,0.00,VWS V14.01,2013-05-21 04:15:00,
2013-05-20 23:18:00,54.5,44.9,27.08,NW,315,10.5,13.9,70,0.00,,---,0.00,VWS V14.01,2013-05-21 04:18:00,
2013-05-20 23:23:00,54.5,44.9,27.08,NW,315,8.1,13.9,70,0.00,,---,0.00,VWS V14.01,2013-05-21 04:23:00,
2013-05-20 23:28:00,54.5,44.9,27.08,NW,315,7.6,13.9,70,0.00,,---,0.00,VWS V14.01,2013-05-21 04:28:00,
2013-05-20 23:30:00,54.0,43.7,27.08,WNW,292,5.6,11.0,68,0.00,,---,0.00,VWS V14.01,2013-05-21 04:30:00,
2013-05-20 23:33:00,54.3,44.8,27.08,West,270,8.5,11.0,70,0.00,,---,0.00,VWS V14.01,2013-05-21 04:33:00,
2013-05-20 23:38:00,54.0,44.4,27.08,West,270,10.3,11.0,70,0.00,,---,0.00,VWS V14.01,2013-05-21 04:38:00,
2013-05-20 23:43:00,53.8,44.2,27.08,WNW,292,13.6,13.6,70,0.00,,---,0.00,VWS V14.01,2013-05-21 04:43:00,
2013-05-20 23:45:00,54.0,43.3,27.08,West,270,10.3,15.4,67,0.00,,---,0.00,VWS V14.01,2013-05-21 04:45:00,
2013-05-20 23:48:00,53.8,44.2,27.08,West,270,6.9,10.3,70,0.00,,---,0.00,VWS V14.01,2013-05-21 04:48:00,
2013-05-20 23:53:00,53.6,44.4,27.08,WNW,292,6.0,10.7,71,0.00,,---,0.00,VWS V14.01,2013-05-21 04:53:00,
2013-05-20 23:58:00,53.4,44.3,27.08,West,270,6.9,10.7,71,0.00,,---,0.00,VWS V14.01,2013-05-21 04:58:00,